Flag for Poland Weather past 2 weeks in Rzeszów, Poland

Now
50 °F

Clear.


Feels Like: 49 °F
Forecast: 55 / 73 °F
Wind: 3 mph from East

Location: Rzeszow-Jasionka

Current Time: Sep 19, 2014 at 2:43:03 AM

Latest Report: Sep 19, 2014 at 2:00 AM


Visibility: 10 mi

Pressure: 30.15 "Hg

Humidity: 88%

Dew point: 46 °F

Location of RzeszówLocation

Historic Weather in Rzeszów — Graph

°F

Rzeszów temperature yesterday

Maximum temperature yesterday: 72 °F (at 12:30 PM)
Minimum temperature yesterday: 45 °F (at 5:00 AM)
Average temperature yesterday: 59 °F

Past Weeks' High & Low Weather Summary

 TemperatureHumidityPressure
High77 °F (Sep 8, 12:00 PM)100% (Sep 4, 7:00 AM)30.21 "Hg (Sep 4, 7:00 AM)
Low45 °F (Sep 18, 5:00 AM)38% (Sep 18, 5:30 PM)29.95 "Hg (Sep 6, 3:00 PM)
Average62 °F78%30.07 "Hg
* Reported Sep 4 1:00 AM — Sep 19 1:30 AM, Rzeszów, Weather by CustomWeather, © 2014

Note: Actual official high and low records may vary slightly from our data, if they occured in-between our weather recording intervals... More about our weather records

Advertising

Rzeszów weather history for previous 24 hours

 ConditionsComfort  
Time TempWeatherWind HumidityBarometerVisibility
1:30 AM
Sep 19
52 °FClear.3 mph88%30.15 "Hg10 mi
1:00 AM50 °FClear.3 mph94%30.15 "Hg10 mi
12:30 AM48 °FClear.1 mph94%30.15 "Hg10 mi
12:00 AM50 °FClear.No wind94%30.15 "Hg10 mi
11:30 PM
Sep 18
50 °FClear.1 mph94%30.15 "Hg10 mi
11:00 PM54 °FClear.1 mph88%30.18 "Hg10 mi
10:30 PM54 °FClear.2 mph82%30.18 "Hg10 mi
10:00 PM57 °FClear.5 mph77%30.18 "Hg10 mi
9:00 PM59 °FClear.5 mph77%30.18 "Hg10 mi
8:30 PM59 °FClear.6 mph77%30.18 "Hg10 mi
8:00 PM57 °FClear.6 mph77%30.18 "Hg10 mi
7:30 PM63 °FSunny.1 mph64%30.15 "Hg10 mi
7:00 PM66 °FSunny.3 mph49%30.15 "Hg10 mi
6:30 PM68 °FPassing clouds.3 mph46%30.15 "HgN/A
6:00 PM70 °FSunny.2 mph43%30.15 "Hg10 mi
5:30 PM72 °FPassing clouds.6 mph38%30.15 "HgN/A
5:00 PM72 °FPassing clouds.7 mph41%30.15 "HgN/A
4:30 PM72 °FPassing clouds.8 mph47%30.15 "HgN/A
4:00 PM72 °FPassing clouds.8 mph41%30.15 "HgN/A
3:30 PM72 °FPassing clouds.9 mph41%30.15 "HgN/A
3:00 PM72 °FPassing clouds.12 mph41%30.15 "HgN/A
2:30 PM72 °FSunny.12 mph41%30.15 "Hg10 mi
2:00 PM72 °FPassing clouds.9 mph41%30.15 "HgN/A
1:30 PM72 °FPassing clouds.6 mph41%30.15 "HgN/A
1:00 PM72 °FPassing clouds.9 mph41%30.18 "HgN/A
12:30 PM72 °FPassing clouds.9 mph41%30.18 "HgN/A
12:00 PM70 °FSunny.3 mph53%30.18 "Hg10 mi
11:30 AM70 °FPassing clouds.3 mph50%30.18 "HgN/A
11:00 AM68 °FPassing clouds.5 mph56%30.18 "HgN/A
10:30 AM66 °FPassing clouds.3 mph64%30.18 "HgN/A
10:00 AM61 °FSunny.2 mph77%30.18 "Hg10 mi
9:30 AM59 °FPassing clouds.3 mph77%30.18 "HgN/A
9:00 AM55 °FSunny.5 mph82%30.18 "Hg10 mi
8:30 AM52 °FClear.5 mph94%30.18 "Hg5 mi
8:00 AM48 °FClear.5 mph94%30.18 "Hg4 mi
7:30 AM46 °FFog.5 mph100%30.18 "Hg3 mi
7:00 AM45 °FFog.3 mph93%30.18 "Hg3 mi
6:30 AM45 °FClear.3 mph93%30.15 "Hg4 mi
6:00 AM45 °FClear.6 mph93%30.15 "Hg4 mi
5:30 AM45 °FClear.5 mph93%30.15 "Hg10 mi
5:00 AM45 °FClear.6 mph100%30.15 "Hg10 mi
4:30 AM46 °FClear.7 mph93%30.15 "Hg10 mi
4:00 AM46 °FClear.7 mph93%30.15 "Hg10 mi
3:30 AM48 °FClear.5 mph87%30.15 "Hg10 mi
3:00 AM48 °FClear.5 mph87%30.15 "Hg10 mi
2:30 AM48 °FClear.7 mph94%30.15 "Hg10 mi
2:00 AM50 °FClear.7 mph88%30.15 "Hg10 mi
Weather by CustomWeather, © 2014

See weather overviewHow to use our weather pages